カタログに戻る

CORIOLIS

運用中科学SSO
NORAD 27640·PAYLOAD·🇺🇸 United States

打ち上げ Jan 6, 2003 から Vandenberg Space Force Base

Loading…

次のパス (今後24時間)

TLE

最新Source: Space-Track

元期: Sep 14, 2026, 11:24 UTC

1 27640U 03001A   26257.47560437  .00000078  00000-0  57136-4 0  9992
2 27640  98.7168 263.0132 0013246 319.6148  40.4044 14.19966395226891

AllMySatでCORIOLISをリアルタイム追跡

Download on the App Store